Time,TemperatureF,DewpointF,PressureIn,WindDirection,WindDirectionDegrees,WindSpeedMPH,WindSpeedGustMPH,Humidity,HourlyPrecipIn,Conditions,Clouds,dailyrainin,SoftwareType,DateUTC
2013-03-09 00:00:00,39.0,36.3,30.13,WSW,248,10.0,15.0,90,0.00,RA,,0.00,WeatherDisplay:10.37,2013-03-09 07:00:00,
2013-03-09 00:10:00,39.0,35.7,30.12,WSW,240,13.0,17.0,88,0.00,CLR,,0.00,WeatherDisplay:10.37,2013-03-09 07:10:00,
2013-03-09 00:20:00,38.0,35.6,30.12,SW,226,9.0,13.0,91,0.00,CLR,,0.00,WeatherDisplay:10.37,2013-03-09 07:20:00,
2013-03-09 00:30:00,38.0,35.6,30.13,SW,221,8.0,13.0,91,0.00,CLR,,0.00,WeatherDisplay:10.37,2013-03-09 07:30:00,
2013-03-09 00:40:00,38.0,35.9,30.13,SW,221,9.0,13.0,92,0.00,CLR,,0.00,WeatherDisplay:10.37,2013-03-09 07:40:00,
2013-03-09 00:50:00,38.0,35.6,30.12,SW,232,7.0,13.0,91,0.00,CLR,,0.00,WeatherDisplay:10.37,2013-03-09 07:50:00,
2013-03-09 01:00:00,38.0,34.8,30.13,WSW,238,7.0,12.0,88,0.00,CLR,,0.00,WeatherDisplay:10.37,2013-03-09 08:00:00,
2013-03-09 01:10:00,39.0,35.2,30.12,SW,225,9.0,13.0,86,0.00,CLR,,0.00,WeatherDisplay:10.37,2013-03-09 08:10:00,
2013-03-09 01:20:00,38.0,35.0,30.12,SW,224,8.0,13.0,89,0.00,CLR,,0.00,WeatherDisplay:10.37,2013-03-09 08:20:00,
2013-03-09 01:30:00,38.9,34.8,30.12,SW,222,8.0,15.0,85,0.00,CLR,,0.00,WeatherDisplay:10.37,2013-03-09 08:30:00,
2013-03-09 01:40:00,38.0,33.9,30.13,SSW,208,9.0,13.0,85,0.00,CLR,,0.00,WeatherDisplay:10.37,2013-03-09 08:40:00,
2013-03-09 01:50:00,39.0,34.0,30.13,SW,215,8.0,12.0,82,0.00,CLR,,0.00,WeatherDisplay:10.37,2013-03-09 08:50:00,
2013-03-09 02:00:00,38.0,33.0,30.13,SW,217,9.0,12.0,82,0.00,CLR,,0.00,WeatherDisplay:10.37,2013-03-09 09:00:00,
2013-03-09 02:10:00,39.0,33.4,30.13,SW,225,9.0,12.0,80,0.00,CLR,,0.00,WeatherDisplay:10.37,2013-03-09 09:10:00,
2013-03-09 02:20:00,39.0,33.7,30.13,SW,235,7.0,13.0,81,0.00,CLR,,0.00,WeatherDisplay:10.37,2013-03-09 09:20:00,
2013-03-09 02:30:00,39.0,34.6,30.12,WSW,237,6.0,13.0,84,0.00,CLR,,0.00,WeatherDisplay:10.37,2013-03-09 09:30:00,
2013-03-09 02:40:00,38.0,33.9,30.12,SW,234,7.0,12.0,85,0.00,CLR,,0.00,WeatherDisplay:10.37,2013-03-09 09:40:00,
2013-03-09 02:50:00,38.0,34.2,30.12,SW,224,5.0,10.0,86,0.00,CLR,,0.00,WeatherDisplay:10.37,2013-03-09 09:50:00,
2013-03-09 03:00:00,38.0,34.5,30.11,SW,232,6.0,12.0,87,0.00,CLR,,0.00,WeatherDisplay:10.37,2013-03-09 10:00:00,
2013-03-09 03:10:00,36.0,32.8,30.12,SSW,202,0.0,5.0,88,0.00,CLR,,0.00,WeatherDisplay:10.37,2013-03-09 10:10:00,
2013-03-09 03:20:00,35.0,32.6,30.12,SSE,153,1.0,2.0,91,0.00,CLR,,0.00,WeatherDisplay:10.37,2013-03-09 10:20:00,
2013-03-09 03:30:00,34.0,33.0,30.13,ESE,112,2.0,6.0,96,0.00,CLR,,0.00,WeatherDisplay:10.37,2013-03-09 10:30:00,
2013-03-09 03:40:00,34.0,32.5,30.13,ESE,112,0.0,5.0,94,0.00,CLR,,0.00,WeatherDisplay:10.37,2013-03-09 10:40:00,
2013-03-09 03:50:00,34.0,32.7,30.13,ESE,112,2.0,6.0,95,0.00,CLR,,0.00,WeatherDisplay:10.37,2013-03-09 10:50:00,
2013-03-09 04:00:00,34.0,33.0,30.12,East,91,3.0,7.0,96,0.00,CLR,,0.00,WeatherDisplay:10.37,2013-03-09 11:00:00,
2013-03-09 04:10:00,34.0,32.5,30.13,East,90,0.0,3.0,94,0.00,CLR,,0.00,WeatherDisplay:10.37,2013-03-09 11:10:00,
2013-03-09 04:20:00,35.0,33.2,30.13,SW,214,2.0,6.0,93,0.00,CLR,,0.00,WeatherDisplay:10.37,2013-03-09 11:20:00,
2013-03-09 04:30:00,36.0,33.4,30.12,SW,234,1.0,8.0,90,0.00,CLR,,0.00,WeatherDisplay:10.37,2013-03-09 11:30:00,
2013-03-09 04:40:00,35.0,32.4,30.13,SSW,202,3.0,7.0,90,0.00,CLR,,0.00,WeatherDisplay:10.37,2013-03-09 11:40:00,
2013-03-09 04:50:00,34.0,31.6,30.13,SSW,202,2.0,5.0,91,0.00,CLR,,0.00,WeatherDisplay:10.37,2013-03-09 11:50:00,
2013-03-09 05:00:00,35.0,32.4,30.13,WSW,247,5.0,7.0,90,0.00,CLR,,0.00,WeatherDisplay:10.37,2013-03-09 12:00:00,
2013-03-09 05:10:00,37.0,31.1,30.13,West,272,9.0,15.0,79,0.00,CLR,,0.00,WeatherDisplay:10.37,2013-03-09 12:10:00,
2013-03-09 05:20:00,37.0,30.5,30.11,WNW,287,9.0,15.0,77,0.00,CLR,,0.00,WeatherDisplay:10.37,2013-03-09 12:20:00,
2013-03-09 05:30:00,37.0,31.4,30.11,WNW,292,6.0,12.0,80,0.00,CLR,,0.00,WeatherDisplay:10.37,2013-03-09 12:30:00,
2013-03-09 05:40:00,36.0,31.0,30.12,West,270,8.0,12.0,82,0.00,CLR,,0.00,WeatherDisplay:10.37,2013-03-09 12:40:00,
2013-03-09 05:50:00,37.0,31.1,30.13,West,259,8.0,13.0,79,0.00,CLR,,0.00,WeatherDisplay:10.37,2013-03-09 12:50:00,
2013-03-09 06:00:00,36.0,31.3,30.13,WSW,254,8.0,12.0,83,0.00,CLR,,0.00,WeatherDisplay:10.37,2013-03-09 13:00:00,
2013-03-09 06:10:00,36.0,31.6,30.13,WSW,247,8.0,12.0,84,0.00,CLR,,0.00,WeatherDisplay:10.37,2013-03-09 13:10:00,
2013-03-09 06:20:00,36.0,31.0,30.14,WSW,246,8.0,12.0,82,0.00,CLR,,0.00,WeatherDisplay:10.37,2013-03-09 13:20:00,
2013-03-09 06:30:00,35.0,31.2,30.15,WSW,247,8.0,12.0,86,0.00,CLR,,0.00,WeatherDisplay:10.37,2013-03-09 13:30:00,
2013-03-09 06:40:00,36.0,31.9,30.15,WSW,251,8.0,12.0,85,0.00,CLR,,0.00,WeatherDisplay:10.37,2013-03-09 13:40:00,
2013-03-09 06:50:00,36.0,32.2,30.16,West,266,7.0,12.0,86,0.00,CLR,,0.00,WeatherDisplay:10.37,2013-03-09 13:50:00,
2013-03-09 07:00:00,36.0,32.2,30.15,West,270,5.0,7.0,86,0.00,CLR,,0.00,WeatherDisplay:10.37,2013-03-09 14:00:00,
2013-03-09 07:10:00,37.0,31.7,30.15,West,269,8.0,12.0,81,0.00,CLR,,0.00,WeatherDisplay:10.37,2013-03-09 14:10:00,
2013-03-09 07:20:00,38.0,31.1,30.13,WSW,257,9.0,14.0,76,0.00,CLR,,0.00,WeatherDisplay:10.37,2013-03-09 14:20:00,
2013-03-09 07:30:00,39.0,30.4,30.14,West,263,9.0,15.0,71,0.00,CLR,,0.00,WeatherDisplay:10.37,2013-03-09 14:30:00,
2013-03-09 07:40:00,40.0,31.0,30.14,West,263,7.0,13.0,70,0.00,CLR,,0.00,WeatherDisplay:10.37,2013-03-09 14:40:00,
2013-03-09 07:50:00,40.0,31.0,30.13,West,273,7.0,13.0,70,0.00,CLR,,0.00,WeatherDisplay:10.37,2013-03-09 14:50:00,
2013-03-09 08:00:00,41.0,30.5,30.13,West,263,8.0,12.0,66,0.00,CLR,,0.00,WeatherDisplay:10.37,2013-03-09 15:00:00,
2013-03-09 08:10:00,40.0,30.6,30.13,WSW,250,6.0,12.0,69,0.00,CLR,,0.00,WeatherDisplay:10.37,2013-03-09 15:10:00,
2013-03-09 08:20:00,41.0,31.2,30.15,WSW,257,5.0,10.0,68,0.00,CLR,,0.00,WeatherDisplay:10.37,2013-03-09 15:20:00,
2013-03-09 08:30:00,42.0,29.9,30.14,West,272,3.0,9.0,62,0.00,CLR,,0.00,WeatherDisplay:10.37,2013-03-09 15:30:00,
2013-03-09 08:40:00,43.0,30.9,30.13,WNW,298,6.0,9.0,62,0.00,CLR,,0.00,WeatherDisplay:10.37,2013-03-09 15:40:00,
2013-03-09 08:50:00,44.0,32.6,30.13,WNW,288,7.0,12.0,64,0.00,CLR,,0.00,WeatherDisplay:10.37,2013-03-09 15:50:00,
2013-03-09 09:00:00,44.0,31.8,30.13,WNW,283,6.0,12.0,62,0.00,CLR,,0.00,WeatherDisplay:10.37,2013-03-09 16:00:00,
2013-03-09 09:10:00,44.0,30.2,30.13,WNW,284,9.0,13.0,58,0.00,CLR,,0.00,WeatherDisplay:10.37,2013-03-09 16:10:00,
2013-03-09 09:20:00,43.0,28.8,30.13,West,268,9.0,15.0,57,0.00,CLR,,0.00,WeatherDisplay:10.37,2013-03-09 16:20:00,
2013-03-09 09:30:00,43.0,28.4,30.14,WSW,257,9.0,15.0,56,0.00,CLR,,0.00,WeatherDisplay:10.37,2013-03-09 16:30:00,
2013-03-09 09:40:00,44.0,28.8,30.15,SW,233,12.0,16.0,55,0.00,CLR,,0.00,WeatherDisplay:10.37,2013-03-09 16:40:00,
2013-03-09 09:50:00,46.0,30.7,30.14,WSW,257,12.0,15.0,55,0.00,CLR,,0.00,WeatherDisplay:10.37,2013-03-09 16:50:00,
2013-03-09 10:00:00,45.0,32.3,30.13,WSW,238,8.0,17.0,61,0.00,CLR,,0.00,WeatherDisplay:10.37,2013-03-09 17:00:00,
2013-03-09 10:10:00,47.0,31.2,30.13,WSW,243,9.0,16.0,54,0.00,CLR,,0.00,WeatherDisplay:10.37,2013-03-09 17:10:00,
2013-03-09 10:20:00,46.0,29.3,30.13,WSW,254,10.0,15.0,52,0.00,CLR,,0.00,WeatherDisplay:10.37,2013-03-09 17:20:00,
2013-03-09 10:30:00,47.0,31.7,30.12,WSW,238,7.0,12.0,55,0.00,CLR,,0.00,WeatherDisplay:10.37,2013-03-09 17:30:00,
2013-03-09 10:40:00,45.0,29.3,30.13,WSW,245,10.0,13.0,54,0.00,CLR,,0.00,WeatherDisplay:10.37,2013-03-09 17:40:00,
2013-03-09 10:50:00,45.0,30.7,30.14,WSW,250,8.0,13.0,57,0.00,CLR,,0.00,WeatherDisplay:10.37,2013-03-09 17:50:00,
2013-03-09 11:00:00,45.0,31.5,30.14,West,273,8.0,13.0,59,0.00,CLR,,0.00,WeatherDisplay:10.37,2013-03-09 18:00:00,
2013-03-09 11:10:00,44.0,31.0,30.14,WNW,283,9.0,15.0,60,0.00,CLR,,0.00,WeatherDisplay:10.37,2013-03-09 18:10:00,
2013-03-09 11:20:00,44.0,29.7,30.15,WNW,290,9.0,15.0,57,0.00,CLR,,0.00,WeatherDisplay:10.37,2013-03-09 18:20:00,
2013-03-09 11:30:00,44.0,30.6,30.15,WNW,294,8.0,13.0,59,0.00,CLR,,0.00,WeatherDisplay:10.37,2013-03-09 18:30:00,
2013-03-09 11:40:00,45.0,31.1,30.14,West,266,7.0,12.0,58,0.00,CLR,,0.00,WeatherDisplay:10.37,2013-03-09 18:40:00,
2013-03-09 11:50:00,47.0,32.1,30.13,WSW,250,8.0,12.0,56,0.00,CLR,,0.00,WeatherDisplay:10.37,2013-03-09 18:50:00,
2013-03-09 12:00:00,47.0,30.3,30.12,West,259,7.0,10.0,52,0.00,CLR,,0.00,WeatherDisplay:10.37,2013-03-09 19:00:00,
2013-03-09 12:10:00,47.0,31.7,30.12,WSW,257,6.0,10.0,55,0.00,CLR,,0.00,WeatherDisplay:10.37,2013-03-09 19:10:00,
2013-03-09 12:20:00,47.0,30.3,30.11,West,278,3.0,10.0,52,0.00,CLR,,0.00,WeatherDisplay:10.37,2013-03-09 19:20:00,
2013-03-09 12:30:00,47.0,29.8,30.11,WSW,251,8.0,12.0,51,0.00,CLR,,0.00,WeatherDisplay:10.37,2013-03-09 19:30:00,
2013-03-09 12:40:00,47.0,31.7,30.11,WNW,303,9.0,12.0,55,0.00,CLR,,0.00,WeatherDisplay:10.37,2013-03-09 19:40:00,
2013-03-09 12:50:00,47.0,29.3,30.11,West,277,8.0,13.0,50,0.00,CLR,,0.00,WeatherDisplay:10.37,2013-03-09 19:50:00,
2013-03-09 13:00:00,48.0,31.2,30.11,West,272,9.0,12.0,52,0.00,CLR,,0.00,WeatherDisplay:10.37,2013-03-09 20:00:00,
2013-03-09 13:10:00,48.0,31.7,30.10,West,275,8.0,13.0,53,0.00,CLR,,0.00,WeatherDisplay:10.37,2013-03-09 20:10:00,
2013-03-09 13:20:00,48.0,29.2,30.09,West,279,9.0,13.0,48,0.00,CLR,,0.00,WeatherDisplay:10.37,2013-03-09 20:20:00,
2013-03-09 13:30:00,49.0,32.6,30.09,West,280,8.0,14.0,53,0.00,CLR,,0.00,WeatherDisplay:10.37,2013-03-09 20:30:00,
2013-03-09 13:40:00,50.0,33.1,30.08,West,268,9.0,13.0,52,0.00,CLR,,0.00,WeatherDisplay:10.37,2013-03-09 20:40:00,
2013-03-09 13:50:00,49.0,31.2,30.08,West,280,8.0,15.0,50,0.00,CLR,,0.00,WeatherDisplay:10.37,2013-03-09 20:50:00,
2013-03-09 14:00:00,49.0,32.1,30.07,West,277,8.0,13.0,52,0.00,CLR,,0.00,WeatherDisplay:10.37,2013-03-09 21:00:00,
2013-03-09 14:10:00,46.0,33.7,30.09,WNW,284,12.0,22.0,62,0.00,CLR,,0.00,WeatherDisplay:10.37,2013-03-09 21:10:00,
2013-03-09 14:20:00,48.0,32.6,30.09,WNW,286,7.0,14.0,55,0.00,CLR,,0.00,WeatherDisplay:10.37,2013-03-09 21:20:00,
2013-03-09 14:30:00,49.0,34.9,30.08,West,274,6.0,13.0,58,0.00,CLR,,0.00,WeatherDisplay:10.37,2013-03-09 21:30:00,
2013-03-09 14:40:00,50.0,34.0,30.07,SW,224,8.0,12.0,54,0.00,CLR,,0.00,WeatherDisplay:10.37,2013-03-09 21:40:00,
2013-03-09 14:50:00,49.1,31.7,30.06,WSW,243,14.0,20.0,51,0.00,CLR,,0.00,WeatherDisplay:10.37,2013-03-09 21:50:00,
2013-03-09 15:00:00,45.0,36.5,30.10,West,270,12.0,21.0,72,0.00,CLR,,0.00,WeatherDisplay:10.37,2013-03-09 22:00:00,
2013-03-09 15:10:00,43.0,36.0,30.12,WSW,239,13.0,20.0,76,0.00,CLR,,0.00,WeatherDisplay:10.37,2013-03-09 22:10:00,
2013-03-09 15:20:00,45.0,37.2,30.12,SW,223,12.0,20.0,74,0.00,CLR,,0.00,WeatherDisplay:10.37,2013-03-09 22:20:00,
2013-03-09 15:30:00,46.0,35.7,30.11,SSW,210,8.0,15.0,67,0.00,CLR,,0.00,WeatherDisplay:10.37,2013-03-09 22:30:00,
2013-03-09 15:40:00,46.0,36.8,30.11,SSW,203,8.0,15.0,70,0.00,CLR,,0.00,WeatherDisplay:10.37,2013-03-09 22:40:00,
2013-03-09 15:50:00,48.0,35.2,30.09,SSW,211,8.0,12.0,61,0.00,CLR,,0.00,WeatherDisplay:10.37,2013-03-09 22:50:00,
2013-03-09 16:00:00,50.0,36.2,30.09,WSW,255,8.0,12.0,59,0.00,CLR,,0.00,WeatherDisplay:10.37,2013-03-09 23:00:00,
2013-03-09 16:10:00,50.0,33.5,30.08,WNW,285,10.0,20.0,53,0.00,CLR,,0.00,WeatherDisplay:10.37,2013-03-09 23:10:00,
2013-03-09 16:20:00,49.1,31.2,30.09,WNW,288,12.0,20.0,50,0.00,CLR,,0.00,WeatherDisplay:10.37,2013-03-09 23:20:00,
2013-03-09 16:30:00,49.0,32.1,30.10,West,274,10.0,18.0,52,0.00,CLR,,0.00,WeatherDisplay:10.37,2013-03-09 23:30:00,
2013-03-09 16:40:00,49.0,33.1,30.11,West,280,12.0,17.0,54,0.00,CLR,,0.00,WeatherDisplay:10.37,2013-03-09 23:40:00,
2013-03-09 16:50:00,48.0,32.6,30.11,WNW,289,12.0,16.0,55,0.00,CLR,,0.00,WeatherDisplay:10.37,2013-03-09 23:50:00,
2013-03-09 17:00:00,48.0,32.6,30.11,West,281,8.0,16.0,55,0.00,CLR,,0.00,WeatherDisplay:10.37,2013-03-10 00:00:00,
2013-03-09 17:10:00,48.0,31.7,30.11,WNW,282,12.0,16.0,53,0.00,CLR,,0.00,WeatherDisplay:10.37,2013-03-10 00:10:00,
2013-03-09 17:20:00,48.0,33.5,30.11,WNW,284,12.0,18.0,57,0.00,CLR,,0.00,WeatherDisplay:10.37,2013-03-10 00:20:00,
2013-03-09 17:30:00,47.0,32.5,30.11,WNW,286,12.0,20.0,57,0.00,CLR,,0.00,WeatherDisplay:10.37,2013-03-10 00:30:00,
2013-03-09 17:40:00,47.0,30.7,30.12,WNW,285,14.0,20.0,53,0.00,CLR,,0.00,WeatherDisplay:10.37,2013-03-10 00:40:00,
2013-03-09 17:50:00,45.0,30.7,30.13,West,281,10.0,20.0,57,0.00,CLR,,0.00,WeatherDisplay:10.37,2013-03-10 00:50:00,
2013-03-09 18:00:00,45.0,31.9,30.13,West,275,10.0,15.0,60,0.00,CLR,,0.00,WeatherDisplay:10.37,2013-03-10 01:00:00,
2013-03-09 18:10:00,44.0,31.4,30.13,West,272,10.0,17.0,61,0.00,CLR,,0.00,WeatherDisplay:10.37,2013-03-10 01:10:00,
2013-03-09 18:20:00,44.0,32.2,30.14,West,279,10.0,16.0,63,0.00,CLR,,0.00,WeatherDisplay:10.37,2013-03-10 01:20:00,
2013-03-09 18:30:00,43.0,32.0,30.15,WNW,292,8.0,12.0,65,0.00,CLR,,0.00,WeatherDisplay:10.37,2013-03-10 01:30:00,
2013-03-09 18:40:00,43.0,32.4,30.16,WNW,302,10.0,15.0,66,0.00,CLR,,0.00,WeatherDisplay:10.37,2013-03-10 01:40:00,
2013-03-09 18:50:00,43.0,31.6,30.16,WNW,293,9.0,16.0,64,0.00,CLR,,0.00,WeatherDisplay:10.37,2013-03-10 01:50:00,
2013-03-09 19:00:00,43.0,32.4,30.16,WNW,290,9.0,14.0,66,0.00,CLR,,0.00,WeatherDisplay:10.37,2013-03-10 02:00:00,
2013-03-09 19:10:00,43.0,32.4,30.16,WNW,293,9.0,13.0,66,0.00,CLR,,0.00,WeatherDisplay:10.37,2013-03-10 02:10:00,
2013-03-09 19:20:00,43.0,32.8,30.16,WNW,293,10.0,16.0,67,0.00,CLR,,0.00,WeatherDisplay:10.37,2013-03-10 02:20:00,
2013-03-09 19:30:00,43.0,33.9,30.17,WNW,292,10.0,20.0,70,0.00,CLR,,0.00,WeatherDisplay:10.37,2013-03-10 02:30:00,
2013-03-09 19:40:00,42.0,32.6,30.17,WNW,299,12.0,15.0,69,0.00,CLR,,0.00,WeatherDisplay:10.37,2013-03-10 02:40:00,
2013-03-09 19:50:00,42.0,33.3,30.18,NW,304,8.0,13.0,71,0.00,CLR,,0.00,WeatherDisplay:10.37,2013-03-10 02:50:00,
2013-03-09 20:00:00,41.0,33.0,30.19,NW,315,8.0,12.0,73,0.00,CLR,,0.00,WeatherDisplay:10.37,2013-03-10 03:00:00,
2013-03-09 20:10:00,40.0,32.7,30.19,NW,315,7.0,12.0,75,0.00,CLR,,0.00,WeatherDisplay:10.37,2013-03-10 03:10:00,
2013-03-09 20:20:00,39.1,32.5,30.20,NW,315,6.0,7.0,77,0.00,CLR,,0.00,WeatherDisplay:10.37,2013-03-10 03:20:00,
2013-03-09 20:30:00,39.0,34.6,30.21,NNW,346,7.0,9.0,84,0.00,CLR,,0.00,WeatherDisplay:10.37,2013-03-10 03:30:00,
2013-03-09 20:40:00,39.0,35.2,30.21,NW,325,6.0,9.0,86,0.00,CLR,,0.00,WeatherDisplay:10.37,2013-03-10 03:40:00,
2013-03-09 20:50:00,39.0,35.2,30.21,NNW,337,6.0,9.0,86,0.00,CLR,,0.00,WeatherDisplay:10.37,2013-03-10 03:50:00,
2013-03-09 21:00:00,39.0,35.2,30.20,NNW,337,5.0,7.0,86,0.00,CLR,,0.00,WeatherDisplay:10.37,2013-03-10 04:00:00,
2013-03-09 21:10:00,39.0,35.5,30.21,NNW,337,2.0,5.0,87,0.00,CLR,,0.00,WeatherDisplay:10.37,2013-03-10 04:10:00,
2013-03-09 21:20:00,39.0,36.0,30.21,NNW,337,6.0,8.0,89,0.00,CLR,,0.00,WeatherDisplay:10.37,2013-03-10 04:20:00,
2013-03-09 21:30:00,39.9,36.7,30.21,NNW,334,6.0,9.0,88,0.00,CLR,,0.00,WeatherDisplay:10.37,2013-03-10 04:30:00,
2013-03-09 21:40:00,40.9,36.8,30.20,NW,316,8.0,12.0,85,0.00,CLR,,0.00,WeatherDisplay:10.37,2013-03-10 04:40:00,
2013-03-09 21:50:00,41.0,36.8,30.20,NW,318,7.0,9.0,85,0.00,CLR,,0.00,WeatherDisplay:10.37,2013-03-10 04:50:00,
2013-03-09 22:00:00,41.0,36.8,30.20,NW,315,5.0,9.0,85,0.00,CLR,,0.00,WeatherDisplay:10.37,2013-03-10 05:00:00,
2013-03-09 22:10:00,40.1,35.9,30.20,NW,315,5.0,6.0,85,0.00,CLR,,0.00,WeatherDisplay:10.37,2013-03-10 05:10:00,
2013-03-09 22:20:00,40.0,36.2,30.20,North,351,8.0,12.0,86,0.00,CLR,,0.00,WeatherDisplay:10.37,2013-03-10 05:20:00,
2013-03-09 22:30:00,40.0,36.4,30.21,North,350,8.0,13.0,87,0.00,CLR,,0.00,WeatherDisplay:10.37,2013-03-10 05:30:00,
2013-03-09 22:40:00,40.0,36.4,30.21,North,353,8.0,13.0,87,0.00,CLR,,0.00,WeatherDisplay:10.37,2013-03-10 05:40:00,
2013-03-09 22:50:00,40.0,36.4,30.21,North,354,7.0,12.0,87,0.00,CLR,,0.00,WeatherDisplay:10.37,2013-03-10 05:50:00,
2013-03-09 23:00:00,40.0,36.2,30.20,North,349,7.0,10.0,86,0.00,CLR,,0.00,WeatherDisplay:10.37,2013-03-10 06:00:00,
2013-03-09 23:10:00,39.1,35.8,30.21,NNW,337,5.0,7.0,88,0.00,CLR,,0.00,WeatherDisplay:10.37,2013-03-10 06:10:00,
2013-03-09 23:20:00,39.0,36.0,30.21,North,359,6.0,7.0,89,0.00,CLR,,0.00,WeatherDisplay:10.37,2013-03-10 06:20:00,
2013-03-09 23:30:00,39.0,36.0,30.21,North,360,2.0,6.0,89,0.00,CLR,,0.00,WeatherDisplay:10.37,2013-03-10 06:30:00,
2013-03-09 23:40:00,39.0,36.3,30.21,North,360,0.0,3.0,90,0.00,CLR,,0.00,WeatherDisplay:10.37,2013-03-10 06:40:00,
2013-03-09 23:50:00,39.0,36.6,30.21,North,360,2.0,2.0,91,0.00,CLR,,0.00,WeatherDisplay:10.37,2013-03-10 06:50:00,